When you browse on this site, cookies collect data to enhance your experience and personalize the content and advertising you see.
Visit our Privacy Policy to learn more. By continuing to use the site, you agree to this use of cookies and data.
  • Em Portugal
  • Lista de países
  • Para 7 dias
  • Temperatura da água
  • Mapas de satélite
  • Mapa do tempo
  • Widgets de tempo
  • user-avatar
    Iniciar Sessão

    Previsão horária em Kornyhnovo

    Hoje, 22 Abril, Segunda-feira

    Tempo Temperatura Precipitação Vento Pressão Humidade
    00:00 +7°C° 0 mm 1 m/s 764 mmHg 68%
    01:00 +7°C° 0 mm 1 m/s 765 mmHg 69%
    02:00 +7°C° 0 mm 1 m/s 765 mmHg 69%
    03:00 +7°C° 0 mm 1 m/s 765 mmHg 70%
    04:00 +6°C° 0 mm 1 m/s 765 mmHg 71%
    05:00 +6°C° 0 mm 1 m/s 765 mmHg 72%
    06:00 +8°C° 0 mm 1 m/s 765 mmHg 66%
    07:00 +10°C° 0 mm 1 m/s 766 mmHg 61%
    08:00 +13°C° 0 mm 1 m/s 766 mmHg 55%
    09:00 +14°C° 0 mm 2 m/s 766 mmHg 49%
    10:00 +16°C° 0 mm 2 m/s 766 mmHg 42%
    11:00 +18°C° 0 mm 2 m/s 766 mmHg 36%
    12:00 +18°C° 0 mm 2 m/s 766 mmHg 34%
    13:00 +19°C° 0 mm 2 m/s 766 mmHg 33%
    14:00 +19°C° 0 mm 2 m/s 766 mmHg 31%
    15:00 +19°C° 0 mm 2 m/s 765 mmHg 32%
    16:00 +19°C° 0 mm 2 m/s 765 mmHg 33%
    17:00 +18°C° 0 mm 2 m/s 765 mmHg 35%
    18:00 +16°C° 0 mm 2 m/s 765 mmHg 41%
    19:00 +14°C° 0 mm 2 m/s 766 mmHg 48%
    20:00 +12°C° 0 mm 2 m/s 766 mmHg 55%
    21:00 +12°C° 0 mm 2 m/s 766 mmHg 57%
    22:00 +10°C° 0 mm 2 m/s 766 mmHg 59%
    23:00 +9°C° 0 mm 2 m/s 767 mmHg 61%

    Amanhã, 23 Abril, Terça-feira

    Tempo Temperatura Precipitação Vento Pressão Humidade
    00:00 +9°C° 0 mm 2 m/s 767 mmHg 63%
    01:00 +8°C° 0 mm 2 m/s 767 mmHg 64%
    02:00 +8°C° 0 mm 2 m/s 767 mmHg 66%
    03:00 +8°C° 0 mm 2 m/s 767 mmHg 67%
    04:00 +8°C° 0 mm 1 m/s 768 mmHg 69%
    05:00 +8°C° 0 mm 1 m/s 768 mmHg 70%
    06:00 +10°C° 0 mm 1 m/s 768 mmHg 65%
    07:00 +12°C° 0 mm 1 m/s 768 mmHg 60%
    08:00 +14°C° 0 mm 2 m/s 768 mmHg 54%
    09:00 +15°C° 0 mm 2 m/s 768 mmHg 49%
    10:00 +17°C° 0 mm 2 m/s 768 mmHg 43%
    11:00 +18°C° 0 mm 2 m/s 768 mmHg 37%
    12:00 +19°C° 0 mm 2 m/s 768 mmHg 35%
    13:00 +19°C° 0 mm 2 m/s 767 mmHg 33%
    14:00 +20°C° 0 mm 2 m/s 767 mmHg 31%
    15:00 +20°C° 0 mm 2 m/s 767 mmHg 31%
    16:00 +20°C° 0 mm 1 m/s 767 mmHg 32%
    17:00 +20°C° 0 mm 1 m/s 766 mmHg 32%
    18:00 +18°C° 0 mm 1 m/s 767 mmHg 38%
    19:00 +14°C° 0 mm 0 m/s 767 mmHg 43%
    20:00 +12°C° 0 mm 0 m/s 767 mmHg 48%
    21:00 +11°C° 0 mm 0 m/s 767 mmHg 50%
    22:00 +11°C° 0 mm 0 m/s 767 mmHg 52%
    23:00 +11°C° 0 mm 1 m/s 767 mmHg 54%

    Depois de amanhã, 24 Abril, Quarta-feira

    Tempo Temperatura Precipitação Vento Pressão Humidade
    00:00 +11°C° 0 mm 1 m/s 767 mmHg 56%
    01:00 +10°C° 0 mm 1 m/s 767 mmHg 59%
    02:00 +10°C° 0 mm 1 m/s 768 mmHg 61%
    03:00 +8°C° 0 mm 0 m/s 768 mmHg 62%
    04:00 +8°C° 0 mm 0 m/s 768 mmHg 64%
    05:00 +8°C° 0 mm 0 m/s 768 mmHg 65%
    06:00 +10°C° 0 mm 0 m/s 768 mmHg 59%
    07:00 +12°C° 0 mm 0 m/s 768 mmHg 52%
    08:00 +15°C° 0 mm 0 m/s 768 mmHg 46%
    09:00 +18°C° 0 mm 1 m/s 768 mmHg 42%
    10:00 +20°C° 0 mm 1 m/s 768 mmHg 37%
    11:00 +22°C° 0 mm 1 m/s 767 mmHg 32%
    12:00 +22°C° 0 mm 1 m/s 767 mmHg 32%
    13:00 +21°C° 0 mm 2 m/s 767 mmHg 31%
    14:00 +23°C° 0 mm 2 m/s 767 mmHg 30%
    15:00 +21°C° 0 mm 2 m/s 766 mmHg 31%
    16:00 +21°C° 0 mm 2 m/s 766 mmHg 32%
    17:00 +22°C° 0 mm 1 m/s 766 mmHg 33%
    18:00 +20°C° 0 mm 1 m/s 766 mmHg 40%
    19:00 +18°C° 0 mm 1 m/s 766 mmHg 46%
    20:00 +15°C° 0 mm 1 m/s 766 mmHg 53%
    21:00 +14°C° 0 mm 1 m/s 766 mmHg 55%
    22:00 +13°C° 0 mm 1 m/s 766 mmHg 58%
    23:00 +12°C° 0 mm 1 m/s 766 mmHg 60%

    25 Abril, Quinta-feira

    Tempo Temperatura Precipitação Vento Pressão Humidade
    00:00 +12°C° 0 mm 1 m/s 766 mmHg 62%
    01:00 +11°C° 0 mm 1 m/s 766 mmHg 63%
    02:00 +11°C° 0 mm 1 m/s 766 mmHg 64%
    03:00 +11°C° 0 mm 1 m/s 766 mmHg 65%
    04:00 +10°C° 0 mm 1 m/s 766 mmHg 66%
    05:00 +10°C° 0 mm 1 m/s 766 mmHg 67%
    06:00 +12°C° 0 mm 1 m/s 766 mmHg 62%
    07:00 +14°C° 0 mm 1 m/s 766 mmHg 57%
    08:00 +16°C° 0 mm 2 m/s 766 mmHg 52%
    09:00 +17°C° 0 mm 2 m/s 765 mmHg 46%
    10:00 +19°C° 0 mm 3 m/s 765 mmHg 41%
    11:00 +20°C° 0 mm 3 m/s 765 mmHg 35%
    12:00 +21°C° 0 mm 3 m/s 765 mmHg 34%
    13:00 +21°C° 0 mm 3 m/s 764 mmHg 34%
    14:00 +22°C° 0 mm 3 m/s 764 mmHg 33%
    15:00 +21°C° 0 mm 3 m/s 764 mmHg 34%
    16:00 +21°C° 0 mm 3 m/s 763 mmHg 35%
    17:00 +21°C° 0 mm 3 m/s 763 mmHg 36%
    18:00 +19°C° 0 mm 2 m/s 763 mmHg 43%
    19:00 +17°C° 0 mm 2 m/s 763 mmHg 49%
    20:00 +15°C° 0 mm 1 m/s 762 mmHg 56%
    21:00 +14°C° 0 mm 1 m/s 762 mmHg 58%
    22:00 +13°C° 0 mm 2 m/s 762 mmHg 61%
    23:00 +13°C° 0 mm 2 m/s 762 mmHg 63%

    26 Abril, Sexta-feira

    Tempo Temperatura Precipitação Vento Pressão Humidade
    00:00 +13°C° 0 mm 2 m/s 762 mmHg 65%
    01:00 +12°C° 0 mm 2 m/s 762 mmHg 66%
    02:00 +12°C° 0 mm 2 m/s 761 mmHg 67%
    03:00 +12°C° 0 mm 2 m/s 761 mmHg 70%
    04:00 +10°C° 0 mm 2 m/s 761 mmHg 72%
    05:00 +10°C° 0 mm 2 m/s 760 mmHg 75%
    06:00 +12°C° 0 mm 2 m/s 760 mmHg 69%
    07:00 +14°C° 0 mm 2 m/s 760 mmHg 64%
    08:00 +16°C° 0 mm 2 m/s 760 mmHg 58%
    09:00 +17°C° 0 mm 3 m/s 759 mmHg 53%
    10:00 +19°C° 0 mm 3 m/s 759 mmHg 48%
    11:00 +21°C° 0 mm 3 m/s 759 mmHg 43%
    12:00 +22°C° 0 mm 3 m/s 758 mmHg 42%
    13:00 +22°C° 0 mm 3 m/s 758 mmHg 41%
    14:00 +24°C° 0 mm 3 m/s 757 mmHg 39%
    15:00 +24°C° 0 mm 2 m/s 757 mmHg 41%
    16:00 +24°C° 0 mm 2 m/s 757 mmHg 42%
    17:00 +24°C° 0 mm 2 m/s 756 mmHg 43%
    18:00 +21°C° 0 mm 2 m/s 757 mmHg 50%
    19:00 +20°C° 0 mm 1 m/s 757 mmHg 57%
    20:00 +18°C° 0 mm 1 m/s 757 mmHg 64%
    21:00 +16°C° 0 mm 1 m/s 757 mmHg 66%
    22:00 +15°C° 0 mm 1 m/s 756 mmHg 69%
    23:00 +15°C° 0 mm 1 m/s 756 mmHg 71%

    27 Abril, Sábado

    Tempo Temperatura Precipitação Vento Pressão Humidade
    00:00 +14°C° 0 mm 1 m/s 756 mmHg 73%
    01:00 +14°C° 0 mm 1 m/s 756 mmHg 76%
    02:00 +13°C° 0 mm 1 m/s 756 mmHg 78%
    03:00 +13°C° 0 mm 1 m/s 756 mmHg 78%
    04:00 +13°C° 0 mm 1 m/s 756 mmHg 79%
    05:00 +13°C° 0 mm 2 m/s 756 mmHg 79%
    06:00 +14°C° 0 mm 2 m/s 756 mmHg 72%
    07:00 +16°C° 0 mm 2 m/s 756 mmHg 65%
    08:00 +17°C° 0 mm 2 m/s 755 mmHg 58%
    09:00 +18°C° 0.3 mm 3 m/s 755 mmHg 59%
    10:00 +19°C° 0.3 mm 3 m/s 755 mmHg 59%
    11:00 +20°C° 0.3 mm 3 m/s 755 mmHg 60%
    12:00 +19°C° 0.4 mm 3 m/s 755 mmHg 65%
    13:00 +19°C° 0.4 mm 3 m/s 755 mmHg 70%
    14:00 +19°C° 0.4 mm 2 m/s 754 mmHg 75%
    15:00 +19°C° 0 mm 2 m/s 754 mmHg 72%
    16:00 +20°C° 0 mm 2 m/s 754 mmHg 68%
    17:00 +21°C° 0 mm 2 m/s 753 mmHg 65%
    18:00 +20°C° 0.1 mm 3 m/s 753 mmHg 71%
    19:00 +18°C° 0.1 mm 3 m/s 753 mmHg 76%
    20:00 +17°C° 0.1 mm 3 m/s 753 mmHg 82%
    21:00 +17°C° 0.4 mm 3 m/s 753 mmHg 86%
    22:00 +16°C° 0.4 mm 2 m/s 753 mmHg 91%
    23:00 +16°C° 0.4 mm 2 m/s 753 mmHg 95%
    Mostrar mais